This demonstration page uses our WeatherBlox Daily Observations layout. Learn more.

Left ArrowRight Arrow

39.12711, -84.51439

Hourly Observations for August 28, 2018

Temp ( °F °C ) Dew Point ( °F °C ) Humidity (%) Winds ( mph kmh ) Pressure ( in mb ) Visibility ( mi km ) Precip ( " mm )
12:53 am 00:53 Clear 73 22.8 73 22.8 100 100 S 3 6 30.05 1018 7 11 N/A
1:53 am 01:53 Clear 72 22.2 71 21.7 97 97 SW 5 7 30.05 1018 7 11 N/A
2:53 am 02:53 Clear 72 22.2 72 22.2 100 100 N N/A 30.05 1018 7 11 N/A
3:53 am 03:53 Clear with Mist and Fog 71 21.7 71 21.7 100 100 N N/A 30.06 1018 5 8 N/A
4:45 am 04:45 Clear with Mist and Fog 69 20.6 69 20.6 100 100 N N/A 30.06 1018 1 2 N/A
4:51 am 04:51 Clear with Mist and Fog 70 21 70 21 100 100 N N/A 30.06 1018 3 5 N/A
4:53 am 04:53 Clear with Mist and Fog 70 21.1 70 21.1 100 100 N N/A 30.07 1018 4 6 N/A
5:53 am 05:53 Clear with Mist and Fog 70 21.1 70 21.1 100 100 N N/A 30.08 1019 6 10 N/A
6:53 am 06:53 Clear with Patchy Fog 69 20.6 69 20.6 100 100 N N/A 30.09 1019 10 16 N/A
7:53 am 07:53 Sunny with Patchy Fog 71 21.7 71 21.7 100 100 N N/A 30.10 1019 10 16 N/A
8:53 am 08:53 Sunny 77 25 73 22.8 88 88 SSW 3 6 30.11 1020 10 16 N/A
9:53 am 09:53 Sunny 82 27.8 72 22.2 72 72 SSW 9 15 30.10 1019 10 16 N/A
10:53 am 10:53 Sunny 85 29.4 73 22.8 68 68 SSW 9 15 30.09 1019 10 16 N/A
11:53 am 11:53 Sunny 87 30.6 73 22.8 63 63 SW 14 22 30.09 1019 10 16 N/A
12:53 pm 12:53 Sunny 89 31.7 73 22.8 59 59 undefined N/A 30.10 1019 10 16 N/A
1:53 pm 13:53 Mostly Cloudy 87 30.6 73 22.8 63 63 SW 8 13 30.10 1019 10 16 N/A
2:53 pm 14:53 Mostly Cloudy 90 32.2 74 23.3 59 59 SW 9 15 30.08 1019 10 16 N/A
3:53 pm 15:53 Partly Cloudy 91 32.8 73 22.8 56 56 WSW 9 15 30.05 1018 10 16 N/A
4:53 pm 16:53 Partly Cloudy 90 32.2 73 22.8 58 58 S 14 22 30.03 1017 10 16 N/A
5:53 pm 17:53 Partly Cloudy 89 31.7 74 23.3 61 61 SSW 12 19 30.03 1017 10 16 N/A
6:53 pm 18:53 Partly Cloudy 87 30.6 75 23.9 67 67 S 8 13 30.02 1017 10 16 N/A
7:53 pm 19:53 Sunny 83 28.3 75 23.9 77 77 SSW 6 9 30.03 1017 10 16 N/A
8:53 pm 20:53 Clear 78 25.6 75 23.9 90 90 SSW 7 11 30.03 1017 10 16 N/A
9:53 pm 21:53 Clear 78 25.6 74 23.3 87 87 N N/A 30.02 1017 10 16 N/A
10:53 pm 22:53 Clear 76 24.4 74 23.3 94 94 SSW 3 6 30.02 1017 10 16 N/A
11:53 pm 23:53 Clear 75 23.9 74 23.3 96 96 SW 3 6 30.03 1017 9 14 N/A

Powered by AerisWeather